Cloud_Cover
99 100 100 100 100 100 76 94 94 32 18 100 100 100 100 86 75 26 30 65 5 100
100 100 100 100 100 100 100 100 100 7 58 92 13 99 30 41 98 12 44 67 62 9
100 100 64 99 96 100 100 99 78 100 83 31 6 6 87 76 96 21 5 5 6 32
100 100 100 77 21 48 10 47 37 57 90 100 24 8 84 90 49 85 99 20 15 11
100 100 100 100 97 33 10 5 42 34 71 69 70 100 99 100 99 73 7 97 63 99
69 100 100 100 100 100 60 85 49 77 5 75 71 97 97 100 78 100 100 52 66 100
0 1 12 99 100 100 98 17 44 12 24 5 64 82 100 84 99 10 86 38 64 100
0 0 0 5 2 2 39 93 9 11 5 21 88 5 54 100 100 65 10 21 30 50
0 0 0 0 0 0 0 5 5 5 5 5 4 5 6 40 100 62 63 14 19 99
0 0 0 0 0 0 0 0 0 0 4 5 22 3 20 5 42 100 97 100 100 94
0 0 0 0 0 0 0 0 0 0 0 3 7 60 3 18 57 100 100 100 66 100
0 0 0 0 0 0 0 0 0 0 0 0 0 1 16 28 3 72 100 100 100 100
0 0 0 0 0 0 0 0 0 0 0 0 0 0 0 47 5 3 91 100 100 100
4 1 0 0 0 0 0 0 0 0 0 0 0 0 0 18 1 4 2 7 65 100